Location: Anuling
(14.1239°N, 120.8922°E)
Time: 05:15:09
(UTC+00:00)

GPS 2-17 Rocket1 - Pass Details

Date: 14 January 2026
Orbit: 545 x 615 km, 20.3° (Epoch: 11 February)

Event Time Altitude Azimuth Distance (km) Brightness Sun altitude
Rises 11:21:42 0° 288° (WNW) 2,833 7.3 -22.5°
Reaches altitude 10° 11:24:05 10° 293° (WNW) 1,920 6.2 -23.1°
Enters shadow 11:27:55 51° 339° (NNW) 738 3.4 -24.0°
